Regional Weather Roundup
Issued by NWS

Home | Current Version | Previous Version | Graphics & Text | Print | Product List | Glossary On
Versions: 1 2 3 4 5 6 7 8 9 10 11 12 13 14 15 16 17 18 19 20 21 22 23 24 25 26 27 28 29 30 31 32 33 34 35 36 37 38 39 40 41 42 43 44 45 46 47 48 49 50
000
ASUS43 KLOT 200704
RWRIL

ILLINOIS REGIONAL WEATHER ROUNDUP
NATIONAL WEATHER SERVICE CHICAGO/ROMEOVILLE IL
200 AM CDT FRI OCT 20 2017

NOTE: "FAIR" INDICATES FEW OR NO CLOUDS BELOW 12,000 FEET WITH NO
SIGNIFICANT WEATHER AND/OR OBSTRUCTIONS TO VISIBILITY.

* THESE STATIONS ARE NOT UNDER NWS QUALITY CONTROL. THEY ALSO MAY NOT
  REPORT WEATHER SUCH AS PRECIPITATION OR FOG.

ILZ001-002-007-009-015-016-024-200800-
NORTHWEST ILLINOIS

CITY           SKY/WX    TMP DP  RH WIND       PRES   REMARKS
MOLINE         FAIR      57  48  72 CALM      30.09S
STERLING*      FAIR      49  46  90 E3          N/A
SAVANNA*       FAIR      49  47  91 CALM      30.10S
$$

ILZ003-004-008-010-011-017-018-200800-
NORTH CENTRAL ILLINOIS

CITY           SKY/WX    TMP DP  RH WIND       PRES   REMARKS
ROCKFORD       FAIR      51  41  68 S5        30.14R
FREEPORT*      FAIR      52  44  73 S7        30.13S
ROCHELLE*      FAIR      50  44  79 SE5       30.13S
DE KALB*       FAIR      50  41  70 S7        30.15S
PERU*          FAIR      55  48  76 S5        30.14S
$$

ILZ005-006-012>014-019>023-200800-
NORTHEAST ILLINOIS

CITY           SKY/WX    TMP DP  RH WIND       PRES   REMARKS
CHICAGO-OHARE  FAIR      52  39  61 S6        30.14S
CHICAGO-MIDWAY FAIR      57  37  47 S6        30.15S
AURORA         FAIR      51  40  65 SE3       30.15R
LANSING*       FAIR      52  40  64 S3        30.17S
JOLIET*        FAIR      50  45  83 SE3       30.15F
WAUKEGAN       FAIR      51  37  58 S5        30.13F
DUPAGE AIRPORT FAIR      50  40  68 S3        30.14S
KANKAKEE*      FAIR      50  48  91 SE5       30.18R
WHEELING       FAIR      50  42  74 CALM      30.15F
MORRIS*        FAIR      54  45  70 CALM      30.14S
NORTHERLY ISL    N/A     59  37  44 S7          N/A
$$

LMZ740>746-200800-
SOUTHERN LAKE MICHIGAN

STATION/POSITION SKY/WX   TEMP    WIND        PRES    VSBY  WAVE
                          AIR SEA DIR/SP/G                  HT/PER
                          (F)     (DEG/KT/KT) (MB)    (MI)  (FT/S)
SOUTHERN BUOY              62 61  140/ 12/ 14 1020.9          1/ 3
WILMETTE HARBOR            60 58  160/ 10/ 10   N/A           1/ 3
HARRISON CRIB              61     180/ 11/ 12   N/A
BURNHAM HARBOR             60     190/  6/ 11   N/A
CALUMET HARBOR             58     180/  6/  9 1020.4S
BURNS HARBOR               61     160/ 10/ 16 1021.7S
MICHIGAN CITY              57     140/ 11/ 11   N/A
MICHIGAN CITY 6N           59 58  170/ 12/ 14   N/A           1/ 2
ST. JOSEPH                 59 58  150/ 10/ 12 1021.9S         1
$$

ILZ025>027-034>036-040-047-049-050-058-095>099-200800-
WEST-CENTRAL ILLINOIS

CITY           SKY/WX    TMP DP  RH WIND       PRES   REMARKS
GALESBURG*     FAIR      63  57  81 S7        30.12S
MACOMB*        FAIR      55  50  82 S9        30.13S
JACKSONVILLE*  FAIR      60  49  69 S6        30.14S
PITTSFIELD*    FAIR      56  50  82 S5        30.14F
$$

ILZ028>032-037-038-041>044-048-051>054-059>061-200800-
CENTRAL ILLINOIS

CITY           SKY/WX    TMP DP  RH WIND       PRES   REMARKS
PONTIAC        FAIR      52  51  98 S6        30.16F
BLOOMINGTON    FAIR      54  48  80 S9        30.17S
DECATUR        FAIR      56  49  77 S8        30.18R
PEORIA         FAIR      56  50  80 S6        30.14R
LACON*         FAIR      57  50  76 SE5       30.12F
LINCOLN*       FAIR      58  51  78 S9        30.16S
SPRINGFIELD    FAIR      61  51  70 S9        30.15S
TAYLORVILLE    FAIR      58  50  75 S8        30.17S
$$

ILZ033-039-045-046-055>057-062-063-200800-
EAST-CENTRAL ILLINOIS

CITY           SKY/WX    TMP DP  RH WIND       PRES   REMARKS
CHAMPAIGN      FAIR      54  48  80 S7        30.19S
DANVILLE*      FAIR      53  50  90 S3        30.18R
RANTOUL*       FAIR      53  50  88 SE3       30.19S
MATTOON        FAIR      58  52  80 S7        30.19R
PARIS*         FAIR      53  50  89 SE5       30.21R
$$

ILZ079-100>102-200800-
SOUTHWEST ILLINOIS

CITY           SKY/WX    TMP DP  RH WIND       PRES   REMARKS
ALTON          FAIR      51  51  99 CALM      30.17S
BELLEVILLE     CLEAR     52  49  90 CALM        N/A
CAHOKIA*       FAIR      54  48  80 S3        30.17R
SPARTA*        FAIR      58  49  72 S5        30.20R
$$

ILZ064>066-069>071-074>076-080>082-084>086-088>090-092>094-200800-
SOUTH-CENTRAL ILLINOIS

CITY           SKY/WX    TMP DP  RH WIND       PRES   REMARKS
CARBONDALE     FOG       47  47 100 CALM      30.20R VSB 3/4
EFFINGHAM*     FAIR      51  50  98 E3        30.22R
MARION         FAIR      54  53  98 CALM      30.21S
MT. VERNON     FAIR      45  45 100 CALM      30.21R FOG
CENTRALIA*     FAIR      57  51  80 S6        30.19S
SALEM*         FAIR      56  50  80 CALM      30.20R
METROPOLIS*    FAIR      48  48  98 CALM      30.22F
$$

ILZ067-068-072-073-078-083-087-091-200800-
SOUTHEAST ILLINOIS

CITY           SKY/WX    TMP DP  RH WIND       PRES   REMARKS
LAWRENCEVILLE  FAIR      53  50  89 CALM      30.22R
FLORA*         FAIR      52  49  89 SE3       30.21S
FAIRFIELD*     FAIR      52  51  96 CALM      30.20S
HARRISBURG*    FAIR      49  48  99 CALM      30.22S
CARMI*         FAIR      49  49 100 CALM      30.22R
$$

ABBREVIATIONS USED IN REMARKS
   TC - TEMPERATURE IN CELSIUS
  WCI - WIND CHILL INDEX
   HX - HEAT INDEX
  VSB - VISIBILITY
$$





USA.gov is the U.S. government's official web portal to all federal, state and local government web resources and services.